STARLINK-3828, 52469

Orbit data source: Space-Track

STARLINK-3828, 52469 is a payload satellite owned by SpaceX/Seattle (US) in LEO that was launched on Fri, 06 May 2022 UTC via an FALCON 9 launch vehicle from the Air Force Eastern Test Range (AFETR). Payload-class satellites include a variety of spacecraft equipped with specific instruments for various scientific and technological missions. These include communications satellites like Starlink; space stations such as the ISS; scientific satellites like the Hubble; Earth observation satellites from companies like Planet Labs, Umbra, and HawkEye 360; GPS; miniature CubeSats for education and research; and military/defense satellites.

Loading next visibility...
Identifier
52469, 2022-049U
Orbit
LEO
Country
Flag of USUS
Related business
Manufacturer
SpaceX/Seattle
Mission
Operational Commercial Communications
Bus & Motor
STARLINK, Unknown motor
Mass
297 kg wet, ~220 kg dry
Launch date (UTC)
2022-05-06 (4 years ago)
Launch vehicle
FALCON 9
Launch site
Air Force Eastern Test Range (AFETR)
Object type
Payload
Rocket body
Debris
Shape & HBR
Box + 1 Pan, 10.1 m
Radar Cross Section
13.562 m², Large (>1 m²)

Expand to show TLE details & history
Last TLE update: 18 hours ago

TLE from 18 hours ago
0 STARLINK-3828
1 52469U 22049U   25346.61820090  .00000987  00000-0  80098-4 0  9992
2 52469  53.2192  90.0028 0001404  81.8608 278.2544 15.08834168199105
Epoch: 2025-12-12T14:50Z
TLE epoch observation values (Epoch: 2025-12-12T14:50:12.557Z)
Latitude
0.00001°
Longitude
145.89325°
Altitude
540.52 km
Speed
7.593 km/s
True Right ascension
06h 00m 00s
True Declination
0° 00' 00"
Sunlit
Object was in full shadow at epoch
Visualization orbit readout
Latitude
Unknown
Longitude
Unknown
Altitude
Unknown
Speed
Unknown
Apparent Right ascension
Unknown
Apparent Declination
Unknown
Sunlit
N/A
Visualization observer readout
Local Sidereal Time
07:26:31
Azimuth
Unknown
Elevation
Unknown
Doppler factor
Unknown
Orbital elements
Apogee altitude
540.977 km
Perigee altitude
539.035 km
Semi-major axis
6,918.143 km
Eccentricity
0.00014
Inclination
53.2192°
RAAN
90.0028°
Arg. of periapsis
81.8608°
True anomaly
278.23848°
Mean anomaly
278.2544°
Eccentric anomaly
278.24644°
Mean motion
3.77189 °/min
Orbital period
95.44 mins
BSTAR
0.000080098
Loading maneuver chart data...
Computing Atmospheric mass density...
Loading historical data...
Loading historical data...
Loading historical data...
Loading historical data...
Loading historical data...
Loading historical data...
Loading historical data...

Documentation

Showing up to 5 results
|